Weather reports worldwide

Advertisment
Bridgefoot, United Kingdom (99137): temperature & dewpoint: 18.05.2017 20:00:00 - 24.05.2017 20:00:00 (BST)Bridgefoot, United Kingdom (99137): temperature 5cm: 18.05.2017 20:00:00 - 24.05.2017 20:00:00 (BST)Bridgefoot, United Kingdom (99137): wind speed: 18.05.2017 20:00:00 - 24.05.2017 20:00:00 (BST)Bridgefoot, United Kingdom (99137): wind direction: 18.05.2017 20:00:00 - 24.05.2017 20:00:00 (BST)Bridgefoot, United Kingdom (99137): visibility: 18.05.2017 20:00:00 - 24.05.2017 20:00:00 (BST)Bridgefoot, United Kingdom (99137): precipitation: 18.05.2017 20:00:00 - 24.05.2017 20:00:00 (BST)
Date & Time tt [°C] td [°C] tt 5cm [°C] ff [km/h] ff [kn] dd vv [km] rr [mm]
24.05.2017 20:00:00 15,6 12,9 - - - - - 0,0
24.05.2017 19:00:00 15,6 12,9 - - - - - 0,0
24.05.2017 18:00:00 16,1 13,6 - - - - - 0,0
24.05.2017 17:00:00 15,0 13,3 - - - - - 0,0
24.05.2017 16:00:00 14,8 13,3 - - - - - -
24.05.2017 15:00:00 14,7 12,6 - - - - - 0,0
24.05.2017 14:00:00 17,0 13,8 - - - - - 0,0
24.05.2017 13:00:00 16,7 13,5 - - - - - 0,0
24.05.2017 12:00:00 17,0 14,2 - - - - - 0,0
24.05.2017 11:00:00 16,3 13,7 - - - - - 0,0
24.05.2017 10:00:00 16,5 13,8 16,5 119 64 N 0,3 0,0
24.05.2017 09:00:00 16,0 13,3 - - - - - 0,0
24.05.2017 08:00:00 15,0 13,3 - - - - - 0,0
24.05.2017 07:00:00 14,5 13,4 - - - - - 0,0
24.05.2017 06:00:00 13,6 12,9 - - - - - 0,0
24.05.2017 05:00:00 13,0 12,3 - - - - - 0,0
24.05.2017 04:00:00 13,4 12,2 - - - - - 0,0
24.05.2017 03:00:00 14,5 13,1 - - - - - 0,0
24.05.2017 02:00:00 14,6 13,0 - - - - - 0,0
24.05.2017 01:00:00 14,8 12,5 - - - - - 0,0
24.05.2017 00:00:00 14,6 12,1 - - - - - 0,0
23.05.2017 23:00:00 14,5 11,9 - - - - - 0,0
23.05.2017 22:00:00 13,9 11,5 - - - - - 0,0
23.05.2017 21:00:00 14,6 11,2 - - - - - 0,0
23.05.2017 20:00:00 15,0 10,9 - - - - - 0,0
23.05.2017 19:00:00 15,2 10,1 - - - - - -
23.05.2017 18:00:00 16,6 10,3 - - - - - 0,0
23.05.2017 17:00:00 16,2 8,2 - - - - - 0,0
23.05.2017 16:00:00 16,2 9,5 - - - - - 0,0
23.05.2017 15:00:00 16,7 10,9 - - - - - 0,0
23.05.2017 14:00:00 15,5 9,7 - - - - - 0,0
23.05.2017 13:00:00 15,9 10,0 - - - - - 0,0
23.05.2017 12:00:00 15,9 8,7 - - - - - 0,0
23.05.2017 11:00:00 14,9 8,1 - - - - - 0,0
23.05.2017 10:00:00 14,2 9,2 14,6 - - N 4,8 0,0
23.05.2017 09:00:00 13,7 9,5 - - - - - 0,0
23.05.2017 08:00:00 12,6 10,1 - - - - - 0,0
23.05.2017 07:00:00 9,2 8,7 - - - - - 0,0
23.05.2017 06:00:00 9,0 8,6 - - - - - 0,0
23.05.2017 05:00:00 8,9 8,3 - - - - - 0,0
23.05.2017 04:00:00 9,3 8,9 - - - - - 0,0
23.05.2017 03:00:00 9,5 9,0 - - - - - 0,0
23.05.2017 02:00:00 10,1 9,5 - - - - - 0,0
23.05.2017 01:00:00 10,7 9,9 - - - - - 0,0
23.05.2017 00:00:00 10,8 9,7 - - - - - 0,0
22.05.2017 23:00:00 12,0 10,7 - - - - - 0,0
22.05.2017 22:00:00 12,6 11,0 - - - - - 0,0
22.05.2017 21:00:00 12,3 10,7 - - - - - 0,0
22.05.2017 20:00:00 13,5 10,9 - - - - - 0,0
22.05.2017 19:00:00 13,8 10,9 - - - - - 0,0
22.05.2017 18:00:00 14,2 11,0 - - - - - 0,0
22.05.2017 17:00:00 14,9 11,7 - - - - - 0,0
22.05.2017 16:00:00 17,6 11,5 - - - - - 0,0
22.05.2017 15:00:00 19,8 12,2 - - - - - 0,0
22.05.2017 14:00:00 18,4 11,4 - - - - - 0,0
22.05.2017 13:00:00 18,8 9,0 - - - - - 0,0
22.05.2017 12:00:00 16,4 12,0 - - - - - 0,0
22.05.2017 11:00:00 14,8 11,6 - - - - - 0,2
22.05.2017 10:00:00 15,1 9,6 - - - - 10 0,0
22.05.2017 09:00:00 15,6 10,2 - - - - - 0,0
22.05.2017 08:00:00 15,8 10,0 - - - - - 0,0
22.05.2017 07:00:00 12,1 8,5 - - - - - 0,0
22.05.2017 06:00:00 11,4 7,5 - - - - - 0,0
22.05.2017 05:00:00 12,4 7,3 - - - - - 0,0
22.05.2017 04:00:00 13,2 7,7 - - - - - 0,0
22.05.2017 03:00:00 13,5 7,6 - - - - - 0,0
22.05.2017 02:00:00 12,1 7,7 - - - - - 0,0
22.05.2017 01:00:00 10,9 9,1 - - - - - 0,0
22.05.2017 00:00:00 7,8 6,6 - - - - - 0,0
21.05.2017 23:00:00 9,8 8,0 - - - - - 0,0
21.05.2017 22:00:00 11,2 8,3 - - - - - 0,0
21.05.2017 21:00:00 13,3 8,2 - - - - - 0,0
21.05.2017 20:00:00 14,4 8,4 - - - - - 0,0
21.05.2017 19:00:00 14,7 7,7 - - - - - 0,0
21.05.2017 18:00:00 15,9 8,4 - - - - - 0,0
21.05.2017 17:00:00 15,6 8,1 - - - - - 0,0
21.05.2017 16:00:00 15,6 7,5 - - - - - 0,0
21.05.2017 15:00:00 15,4 9,5 - - - - - 0,0
21.05.2017 14:00:00 14,7 9,8 - - - - - 0,0
21.05.2017 13:00:00 13,8 9,8 - - - - - 0,0
21.05.2017 12:00:00 13,5 10,5 - - - - - 0,0
21.05.2017 11:00:00 12,5 10,1 - - - - - 0,2
21.05.2017 10:00:00 10,9 10,0 11,8 - - N 27 1,2
21.05.2017 09:00:00 11,7 10,1 - - - - - 0,2
21.05.2017 08:00:00 11,4 9,6 - - - - - 0,0
21.05.2017 07:00:00 11,0 9,1 - - - - - 0,0
21.05.2017 06:00:00 10,5 9,1 - - - - - 0,0
21.05.2017 05:00:00 10,4 8,8 - - - - - 0,0
21.05.2017 04:00:00 10,5 9,0 - - - - - 0,0
21.05.2017 03:00:00 9,6 8,2 - - - - - 0,0
21.05.2017 02:00:00 10,0 8,4 - - - - - 0,0
21.05.2017 01:00:00 10,4 8,6 - - - - - 0,0
21.05.2017 00:00:00 9,8 7,9 - - - - - 0,0
20.05.2017 23:00:00 10,3 7,9 - - - - - 0,0
20.05.2017 22:00:00 10,4 7,8 - - - - - 0,0
20.05.2017 21:00:00 10,5 7,3 - - - - - 0,0
20.05.2017 20:00:00 11,1 6,7 - - - - - 0,0
20.05.2017 19:00:00 11,8 7,9 - - - - - 0,0
20.05.2017 18:00:00 12,0 8,0 - - - - - 0,0
20.05.2017 17:00:00 12,7 8,4 - - - - - 0,0
20.05.2017 16:00:00 12,5 8,0 - - - - - 0,0
20.05.2017 15:00:00 11,6 8,5 - - - - - 0,0
20.05.2017 14:00:00 11,1 8,7 - - - - - 0,2
20.05.2017 13:00:00 10,7 8,4 - - - - - 0,0
20.05.2017 12:00:00 11,7 8,5 - - - - - 0,0
20.05.2017 11:00:00 12,2 8,6 - - - - - 0,0
20.05.2017 10:00:00 11,6 8,8 11,9 - - N 2,6 0,0
20.05.2017 09:00:00 11,5 9,1 - - - - - 0,0
20.05.2017 08:00:00 10,9 9,2 - - - - - 0,0
20.05.2017 07:00:00 10,4 9,1 - - - - - 0,0
20.05.2017 06:00:00 7,4 7,2 - - - - - 0,0
20.05.2017 05:00:00 5,6 5,0 - - - - - 0,0
20.05.2017 04:00:00 6,4 5,8 - - - - - 0,0
20.05.2017 03:00:00 7,4 6,6 - - - - - 0,0
20.05.2017 02:00:00 8,4 7,6 - - - - - 0,0
20.05.2017 01:00:00 8,9 7,9 - - - - - 0,0
20.05.2017 00:00:00 9,3 8,2 - - - - - 0,0
19.05.2017 23:00:00 9,6 8,1 - - - - - 0,0
19.05.2017 22:00:00 9,9 8,1 - - - - - 0,0
19.05.2017 21:00:00 10,6 8,3 - - - - - 0,0
19.05.2017 20:00:00 11,3 7,9 - - - - - 0,0
19.05.2017 19:00:00 11,6 8,1 - - - - - 0,0
19.05.2017 18:00:00 11,8 8,4 - - - - - 0,0
19.05.2017 17:00:00 12,1 8,0 - - - - - 0,0
19.05.2017 16:00:00 13,1 7,2 - - - - - 0,0
19.05.2017 15:00:00 14,6 6,9 - - - - - 0,0
19.05.2017 14:00:00 14,4 8,1 - - - - - 0,0
19.05.2017 13:00:00 14,0 8,8 - - - - - 0,0
19.05.2017 12:00:00 13,1 8,3 - - - - - 0,0
19.05.2017 11:00:00 12,7 7,7 - - - - - -
19.05.2017 10:00:00 13,7 8,3 13,7 128 69 N 1,7 0,0
19.05.2017 09:00:00 11,0 8,6 - - - - - 0,0
19.05.2017 08:00:00 7,4 6,6 - - - - - 0,0
19.05.2017 07:00:00 5,4 5,0 - - - - - 0,0
19.05.2017 06:00:00 3,9 3,4 - - - - - 0,0
19.05.2017 05:00:00 4,0 3,4 - - - - - 0,0
19.05.2017 04:00:00 4,5 3,9 - - - - - 0,0
19.05.2017 03:00:00 5,0 4,3 - - - - - 0,0
19.05.2017 02:00:00 5,7 4,8 - - - - - 0,0
19.05.2017 01:00:00 6,6 5,4 - - - - - 0,0
19.05.2017 00:00:00 7,1 5,7 - - - - - 0,0
18.05.2017 23:00:00 7,7 6,2 - - - - - 0,0
18.05.2017 22:00:00 8,1 6,2 - - - - - 0,0
18.05.2017 21:00:00 10,1 6,5 - - - - - 0,0
18.05.2017 20:00:00 10,9 6,3 - - - - - 0,0

tt = temperature
td = dewpoint
tt 5cm = temperature 5cm
ff = wind speed
dd = wind direction
vv = visibility
rr = precipitation

Next stations